Home > Time Zones > World Clock > Weather > Yemen > Sana > Past weeks

Flag for Yemen Weather past 2 weeks in Sana, Yemen

Now
79 °F

Sunny.


Feels Like: 77 °F
Forecast: 43 / 78 °F
Wind: 7 mph from East

Location: Sana'A Airport

Current Time: Jan 29, 2015 at 3:39:26 PM

Latest Report: Jan 29, 2015 at 3:00 PM


Visibility: 10 mi

Pressure: 30.24 "Hg

Humidity: 5%

Dew point: 1 °F

Location of SanaLocation

Historic Weather in Sana — Graph

°F

Sana temperature yesterday

Maximum temperature yesterday: 79 °F (at 3:00 PM)
Minimum temperature yesterday: 39 °F (at 6:00 AM)
Average temperature yesterday: 59 °F

Past Weeks' High & Low Weather Summary

 TemperatureHumidityPressure
High79 °F (Jan 28, 3:00 PM)81% (Jan 21, 4:00 AM)30.45 "Hg (Jan 21, 4:00 AM)
Low36 °F (Jan 24, 7:00 AM)5% (Jan 26, 4:00 PM)30.21 "Hg (Jan 17, 2:00 PM)
Average56 °F31%30.33 "Hg
* Reported Jan 14 2:00 PM — Jan 29 2:00 PM, Sana, Weather by CustomWeather, © 2014

Note: Actual official high and low records may vary slightly from our data, if they occured in-between our weather recording intervals... More about our weather records

Advertising

Sana weather history for previous 24 hours

 ConditionsComfort  
Time TempWeatherWind HumidityBarometerVisibility
2:00 PM
Jan 29
77 °FSunny.7 mph6%30.27 "Hg10 mi
1:00 PM75 °FSunny.5 mph6%30.30 "Hg10 mi
12:00 PM73 °FSunny.6 mph7%30.33 "Hg10 mi
11:00 AM72 °FSunny.2 mph7%30.36 "Hg10 mi
10:00 AM66 °FSunny.2 mph9%30.39 "Hg10 mi
9:00 AM57 °FSunny.3 mph11%30.36 "Hg10 mi
8:00 AM50 °FSunny.No wind16%30.36 "Hg10 mi
7:00 AM43 °FSunny.3 mph21%30.33 "Hg10 mi
6:00 AM43 °FClear.2 mph22%30.30 "Hg10 mi
5:00 AM43 °FPassing clouds.3 mph21%30.27 "HgN/A
4:00 AM46 °FClear.3 mph18%30.27 "Hg10 mi
3:00 AM46 °FClear.2 mph18%30.30 "Hg10 mi
2:00 AM46 °FClear.No wind18%30.30 "Hg10 mi
1:00 AM50 °FClear.No wind17%30.30 "Hg10 mi
12:00 AM54 °FPassing clouds.3 mph15%30.33 "HgN/A
11:00 PM
Jan 28
52 °FClear.3 mph16%30.33 "Hg10 mi
10:00 PM55 °FPassing clouds.3 mph13%30.33 "HgN/A
9:00 PM57 °FClear.2 mph12%30.33 "Hg10 mi
8:00 PM63 °FPassing clouds.3 mph14%30.30 "HgN/A
7:00 PM64 °FPassing clouds.5 mph12%30.30 "HgN/A
6:00 PM70 °FPassing clouds.10 mph7%30.27 "HgN/A
5:00 PM75 °FPassing clouds.9 mph6%30.24 "HgN/A
4:00 PM77 °FPassing clouds.10 mph6%30.24 "HgN/A
3:00 PM79 °FPassing clouds.9 mph6%30.24 "HgN/A
Weather by CustomWeather, © 2014

See weather overviewHow to use our weather pages